Home   Weather   Behbahan   Past weeks

Flag for Iran Past Weather in Behbahan, Iran — Yesterday and Last 2 Weeks

Now
37 °F

Clear.


Feels Like: 37 °F
Forecast: 42 / 66 °F
Wind: No wind

Location: Gach Saran Du Gunbadan

Current Time: Jan 24, 2017 at 8:58:45 am

Latest Report: Jan 24, 2017 at 7:30 am


Visibility: 10 mi

Pressure: 30.09 "Hg

Humidity: 93%

Dew Point: 36 °F

Location of BehbahanLocation

Past Weather in Behbahan — Graph

°F

Behbahan Temperature Yesterday

Maximum temperature yesterday: 61 °F (at 1:30 pm)
Minimum temperature yesterday: 41 °F (at 4:30 am)
Average temperature yesterday: 49 °F

High & Low Weather Summary for the Past Weeks

 TemperatureHumidityPressure
High75 °F (Jan 10, 1:30 pm)100% (Jan 20, 4:30 am)30.24 "Hg (Jan 20, 4:30 am)
Low34 °F (Jan 14, 7:30 am)16% (Jan 13, 1:30 pm)29.89 "Hg (Jan 13, 1:30 pm)
Average54 °F56%30.09 "Hg
* Reported Jan 9 7:30 am — Jan 24 7:30 am, Behbahan, Weather by CustomWeather, © 2017

Note: Actual official high and low records may vary slightly from our data, if they occured in-between our weather recording intervals... More about our weather records

Advertising

Behbahan Weather History for the Previous 24 Hours

Scroll right to see more
 ConditionsComfort  
Time TempWeatherWind HumidityBarometerVisibility
7:30 am
Tue, Jan 24
37 °FClear.No wind93%30.09 "Hg10 mi
6:30 am36 °FClear.No wind93%30.07 "Hg10 mi
5:30 am37 °FClear.No wind87%30.07 "Hg10 mi
4:30 am37 °FClear.No wind93%30.07 "Hg10 mi
3:30 am39 °FClear.No wind81%30.07 "Hg10 mi
2:30 am39 °FClear.No wind81%30.07 "Hg10 mi
1:30 am41 °FClear.No wind76%30.09 "Hg10 mi
12:30 am43 °FClear.No wind66%30.09 "Hg10 mi
11:30 pm
Mon, Jan 23
45 °FClear.No wind61%30.09 "Hg10 mi
10:30 pm46 °FClear.5 mph62%30.09 "Hg10 mi
9:30 pm48 °FClear.5 mph58%30.09 "Hg10 mi
8:30 pm48 °FClear.5 mph58%30.09 "Hg10 mi
7:30 pm50 °FPassing clouds.No wind58%30.09 "HgN/A
6:30 pm54 °FPassing clouds.No wind51%30.09 "HgN/A
5:30 pm55 °FScattered clouds.7 mph41%30.07 "HgN/A
4:30 pm59 °FScattered clouds.9 mph39%30.07 "HgN/A
3:30 pm59 °FScattered clouds.No wind39%30.07 "HgN/A
1:30 pm61 °FScattered clouds.No wind42%30.09 "HgN/A
12:30 pm59 °FSunny.No wind42%30.12 "Hg10 mi
11:30 am55 °FSunny.No wind67%30.15 "Hg10 mi
10:30 am50 °FFog.No wind100%30.15 "Hg0 mi
9:30 am46 °FFog.No wind100%30.15 "Hg0 mi
8:30 am45 °FFog.No wind100%30.15 "Hg0 mi
Weather by CustomWeather, © 2017

See weather overviewHow to use our weather pages